sat.trackr.live / text

‹ back to catalog

STARLINK-31777

NORAD 59619 · 2024-080U

PAYLOAD ACTIVE UNKNOWN

§ Identity

Operator
Country
US
Launch date
2024-04-28
Launch site
AFETR
Launch vehicle
Mass (kg)
RCS (m²)

Purposes: comms

External: N2YO · Heavens-Above · Gunter

§ Orbital elements

Epoch: 2026-09-21T08:38:14.057088Z

Period
94.27 min
Inclination
43.0038°
Eccentricity
0.0000998
Mean motion
15.27577574 rev/d
Perigee alt
482.4 km
Apogee alt
483.7 km
Semi-major
6,861.2 km
B*
1.1597e-5
RAAN
16.6885°
Arg perigee
275.1859°
Mean anomaly
84.8879°
Rev number
13,441

§ Raw data

STARLINK-317771 59619U 24080U   26264.35988492  .00000057  00000+0  11597-4 0  99902 59619  43.0038  16.6885 0000998 275.1859  84.8879 15.27577574134414

JSON: /api/v1/satellites/59619 · /tle

For live sub-satellite position, see the globe view (requires WebGL).

§ Visibility from observer

Set your observer location to see the next 7 days of passes ≥ 10°. The values pass through the URL so the page stays shareable.

No JS? Fill the form by hand. The geolocation button needs JavaScript.